Time,TemperatureF,DewpointF,PressureIn,WindDirection,WindDirectionDegrees,WindSpeedMPH,WindSpeedGustMPH,Humidity,HourlyPrecipIn,Conditions,Clouds,dailyrainin,SolarRadiationWatts/m^2,SoftwareType,DateUTC
2013-01-13 00:03:00,-6.0,-10.1,30.04,WNW,286,2.3,2.3,82,0.00,-RA,,0.00,0.0,WeatherDisplay:10.37,2013-01-13 06:03:00,
2013-01-13 00:08:00,-6.0,-10.1,30.05,WNW,286,0.0,0.0,82,0.00,-RA,,0.00,0.0,WeatherDisplay:10.37,2013-01-13 06:08:00,
2013-01-13 00:13:00,-6.1,-10.2,30.04,WNW,286,3.5,3.5,82,0.00,-RA,,0.00,0.0,WeatherDisplay:10.37,2013-01-13 06:13:00,
2013-01-13 00:18:00,-6.1,-10.2,30.04,WNW,284,2.3,2.3,82,0.00,-RA,,0.00,0.0,WeatherDisplay:10.37,2013-01-13 06:18:00,
2013-01-13 00:23:00,-6.1,-10.2,30.04,WNW,284,1.0,0.0,82,0.00,-RA,,0.00,0.0,WeatherDisplay:10.37,2013-01-13 06:23:00,
2013-01-13 00:28:00,-6.1,-10.2,30.04,WNW,284,2.3,2.3,82,0.00,-RA,,0.00,0.0,WeatherDisplay:10.37,2013-01-13 06:28:00,
2013-01-13 00:33:00,-6.1,-10.2,30.04,WNW,284,0.0,0.0,82,0.00,-RA,,0.00,0.0,WeatherDisplay:10.37,2013-01-13 06:33:00,
2013-01-13 00:38:00,-6.2,-10.3,30.04,WNW,284,1.0,0.0,82,0.00,-RA,,0.00,0.0,WeatherDisplay:10.37,2013-01-13 06:38:00,
2013-01-13 00:43:00,-6.1,-10.2,30.04,WNW,286,0.0,0.0,82,0.00,-RA,,0.00,0.0,WeatherDisplay:10.37,2013-01-13 06:43:00,
2013-01-13 00:48:00,-6.1,-10.2,30.04,WNW,286,2.3,2.3,82,0.00,-RA,,0.00,0.0,WeatherDisplay:10.37,2013-01-13 06:48:00,
2013-01-13 00:53:00,-6.1,-10.2,30.04,WNW,286,0.0,0.0,82,0.00,-RA,,0.00,0.0,WeatherDisplay:10.37,2013-01-13 06:53:00,
2013-01-13 00:58:00,-6.1,-10.2,30.04,WNW,286,0.0,0.0,82,0.00,-RA,,0.00,0.0,WeatherDisplay:10.37,2013-01-13 06:58:00,
2013-01-13 01:03:00,-6.1,-10.2,30.03,WNW,286,2.3,2.3,82,0.00,-RA,,0.00,0.0,WeatherDisplay:10.37,2013-01-13 07:03:00,
2013-01-13 01:08:00,-6.0,-10.1,30.03,WNW,286,3.5,3.5,82,0.00,-RA,,0.00,0.0,WeatherDisplay:10.37,2013-01-13 07:08:00,
2013-01-13 01:13:00,-6.0,-9.8,30.02,WNW,288,3.5,3.5,83,0.00,-RA,,0.00,0.0,WeatherDisplay:10.37,2013-01-13 07:13:00,
2013-01-13 01:18:00,-5.9,-9.7,30.02,WNW,288,2.3,2.3,83,0.00,-RA,,0.00,0.0,WeatherDisplay:10.37,2013-01-13 07:18:00,
2013-01-13 01:23:00,-5.9,-9.7,30.02,WNW,288,2.3,2.3,83,0.00,-RA,,0.00,0.0,WeatherDisplay:10.37,2013-01-13 07:23:00,
2013-01-13 01:28:00,-5.8,-9.6,30.02,WNW,288,1.1,1.1,83,0.00,-RA,,0.00,0.0,WeatherDisplay:10.37,2013-01-13 07:28:00,
2013-01-13 01:33:00,-5.8,-9.6,30.02,WNW,290,1.1,1.1,83,0.00,-RA,,0.00,0.0,WeatherDisplay:10.37,2013-01-13 07:33:00,
2013-01-13 01:38:00,-5.7,-9.5,30.02,WNW,290,2.3,2.3,83,0.00,-RA,,0.00,0.0,WeatherDisplay:10.37,2013-01-13 07:38:00,
2013-01-13 01:43:00,-5.7,-9.5,30.02,WNW,290,1.1,1.1,83,0.00,-RA,,0.00,0.0,WeatherDisplay:10.37,2013-01-13 07:43:00,
2013-01-13 01:48:00,-5.6,-9.4,30.02,WNW,300,3.5,3.5,83,0.00,-RA,,0.00,0.0,WeatherDisplay:10.37,2013-01-13 07:48:00,
2013-01-13 01:53:00,-5.6,-9.4,30.02,WNW,300,3.5,3.5,83,0.00,-RA,,0.00,0.0,WeatherDisplay:10.37,2013-01-13 07:53:00,
2013-01-13 01:58:00,-5.5,-9.3,30.02,WNW,300,2.0,2.0,83,0.00,-RA,,0.00,0.0,WeatherDisplay:10.37,2013-01-13 07:58:00,
2013-01-13 02:03:00,-5.5,-9.3,30.02,WNW,300,2.0,2.0,83,0.00,-RA,,0.00,0.0,WeatherDisplay:10.37,2013-01-13 08:03:00,
2013-01-13 02:08:00,-5.4,-9.2,30.02,WNW,299,2.3,2.3,83,0.00,-RA,,0.00,0.0,WeatherDisplay:10.37,2013-01-13 08:08:00,
2013-01-13 02:13:00,-5.4,-9.2,30.02,WNW,299,1.1,1.1,83,0.00,-RA,,0.00,0.0,WeatherDisplay:10.37,2013-01-13 08:13:00,
2013-01-13 02:18:00,-5.3,-9.1,30.03,WNW,299,1.1,0.0,83,0.00,-RA,,0.00,0.0,WeatherDisplay:10.37,2013-01-13 08:18:00,
2013-01-13 02:23:00,-5.3,-9.1,30.03,WNW,298,2.3,2.3,83,0.00,-RA,,0.00,0.0,WeatherDisplay:10.37,2013-01-13 08:23:00,
2013-01-13 02:28:00,-5.3,-9.1,30.03,WNW,298,3.5,3.5,83,0.00,-RA,,0.00,0.0,WeatherDisplay:10.37,2013-01-13 08:28:00,
2013-01-13 02:33:00,-5.3,-9.1,30.03,WNW,299,2.3,2.3,83,0.00,-RA,,0.00,0.0,WeatherDisplay:10.37,2013-01-13 08:33:00,
2013-01-13 02:38:00,-5.2,-9.0,30.03,WNW,300,2.0,2.0,83,0.00,-RA,,0.00,0.0,WeatherDisplay:10.37,2013-01-13 08:38:00,
2013-01-13 02:43:00,-5.2,-9.0,30.03,WNW,300,0.0,0.0,83,0.00,-RA,,0.00,0.0,WeatherDisplay:10.37,2013-01-13 08:43:00,
2013-01-13 02:48:00,-5.2,-9.0,30.03,WNW,299,2.3,2.3,83,0.00,-RA,,0.00,0.0,WeatherDisplay:10.37,2013-01-13 08:48:00,
2013-01-13 02:53:00,-5.2,-9.0,30.03,WNW,299,1.1,0.0,83,0.00,-RA,,0.00,0.0,WeatherDisplay:10.37,2013-01-13 08:53:00,
2013-01-13 02:58:00,-5.1,-8.9,30.03,WNW,299,0.0,0.0,83,0.00,-RA,,0.00,0.0,WeatherDisplay:10.37,2013-01-13 08:58:00,
2013-01-13 03:03:00,-5.1,-8.9,30.02,WNW,299,0.0,0.0,83,0.00,-RA,,0.00,0.0,WeatherDisplay:10.37,2013-01-13 09:03:00,
2013-01-13 03:08:00,-5.1,-8.9,30.02,WNW,299,0.0,0.0,83,0.00,-RA,,0.00,0.0,WeatherDisplay:10.37,2013-01-13 09:08:00,
2013-01-13 03:13:00,-5.1,-8.9,30.02,WNW,299,2.3,0.0,83,0.00,-RA,,0.00,0.0,WeatherDisplay:10.37,2013-01-13 09:13:00,
2013-01-13 03:18:00,-5.1,-8.9,30.02,WNW,299,2.3,2.3,83,0.00,-RA,,0.00,0.0,WeatherDisplay:10.37,2013-01-13 09:18:00,
2013-01-13 03:23:00,-5.1,-8.9,30.02,WNW,298,2.3,2.3,83,0.00,-RA,,0.00,0.0,WeatherDisplay:10.37,2013-01-13 09:23:00,
2013-01-13 03:28:00,-5.1,-8.9,30.02,WNW,298,1.1,1.1,83,0.00,-RA,,0.00,0.0,WeatherDisplay:10.37,2013-01-13 09:28:00,
2013-01-13 03:33:00,-5.2,-9.0,30.02,WNW,296,0.0,0.0,83,0.00,-RA,,0.00,0.0,WeatherDisplay:10.37,2013-01-13 09:33:00,
2013-01-13 03:38:00,-5.3,-9.1,30.01,WNW,298,0.0,0.0,83,0.00,-RA,,0.00,0.0,WeatherDisplay:10.37,2013-01-13 09:38:00,
2013-01-13 03:43:00,-5.3,-9.1,30.01,WNW,298,0.0,0.0,83,0.00,-RA,,0.00,0.0,WeatherDisplay:10.37,2013-01-13 09:43:00,
2013-01-13 03:48:00,-5.4,-9.2,30.01,WNW,298,0.0,0.0,83,0.00,-RA,,0.00,0.0,WeatherDisplay:10.37,2013-01-13 09:48:00,
2013-01-13 03:53:00,-5.4,-9.2,30.01,WNW,299,0.0,0.2,83,0.00,-RA,,0.00,0.0,WeatherDisplay:10.37,2013-01-13 09:53:00,
2013-01-13 03:58:00,-5.5,-9.6,30.01,WNW,300,1.1,0.0,82,0.00,-RA,,0.00,0.0,WeatherDisplay:10.37,2013-01-13 09:58:00,
2013-01-13 04:03:00,-5.6,-9.4,30.01,WNW,299,1.1,1.1,83,0.00,-RA,,0.00,0.0,WeatherDisplay:10.37,2013-01-13 10:03:00,
2013-01-13 04:08:00,-5.7,-9.5,30.01,WNW,298,1.1,0.0,83,0.00,-RA,,0.00,0.0,WeatherDisplay:10.37,2013-01-13 10:08:00,
2013-01-13 04:13:00,-5.7,-9.5,30.00,WNW,298,2.3,0.0,83,0.00,-RA,,0.00,0.0,WeatherDisplay:10.37,2013-01-13 10:13:00,
2013-01-13 04:18:00,-5.8,-9.6,30.00,WNW,298,0.0,0.0,83,0.00,-RA,,0.00,0.0,WeatherDisplay:10.37,2013-01-13 10:18:00,
2013-01-13 04:23:00,-5.8,-9.6,30.01,WNW,298,1.1,1.1,83,0.00,-RA,,0.00,0.0,WeatherDisplay:10.37,2013-01-13 10:23:00,
2013-01-13 04:28:00,-5.8,-9.6,30.01,WNW,298,1.1,1.1,83,0.00,-RA,,0.00,0.0,WeatherDisplay:10.37,2013-01-13 10:28:00,
2013-01-13 04:33:00,-5.9,-10.0,30.01,WNW,298,1.0,1.0,82,0.00,-RA,,0.00,0.0,WeatherDisplay:10.37,2013-01-13 10:33:00,
2013-01-13 04:38:00,-6.0,-10.1,30.01,WNW,298,1.1,1.1,82,0.00,-RA,,0.00,0.0,WeatherDisplay:10.37,2013-01-13 10:38:00,
2013-01-13 04:43:00,-6.1,-10.2,30.01,WNW,298,1.0,1.0,82,0.00,-RA,,0.00,0.0,WeatherDisplay:10.37,2013-01-13 10:43:00,
2013-01-13 04:48:00,-6.2,-10.3,30.01,WNW,298,1.1,1.1,82,0.00,-RA,,0.00,0.0,WeatherDisplay:10.37,2013-01-13 10:48:00,
2013-01-13 04:53:00,-6.3,-10.4,30.01,WNW,298,2.3,2.3,82,0.00,-RA,,0.00,0.0,WeatherDisplay:10.37,2013-01-13 10:53:00,
2013-01-13 04:58:00,-6.3,-10.4,30.01,WNW,298,0.0,0.0,82,0.00,-RA,,0.00,0.0,WeatherDisplay:10.37,2013-01-13 10:58:00,
2013-01-13 05:03:00,-6.4,-10.5,30.01,WNW,298,0.0,0.0,82,0.00,-RA,,0.00,0.0,WeatherDisplay:10.37,2013-01-13 11:03:00,
2013-01-13 05:08:00,-6.4,-10.5,30.02,WNW,298,0.0,0.0,82,0.00,-RA,,0.00,0.0,WeatherDisplay:10.37,2013-01-13 11:08:00,
2013-01-13 05:13:00,-6.4,-10.5,30.02,WNW,298,1.1,0.0,82,0.00,-RA,,0.00,0.0,WeatherDisplay:10.37,2013-01-13 11:13:00,
2013-01-13 05:18:00,-6.5,-10.6,30.02,WNW,298,0.0,0.0,82,0.00,-RA,,0.00,0.0,WeatherDisplay:10.37,2013-01-13 11:18:00,
2013-01-13 05:24:00,-6.5,-10.6,30.01,WNW,298,1.0,1.0,82,0.00,-RA,,0.00,0.0,WeatherDisplay:10.37,2013-01-13 11:24:00,
2013-01-13 05:29:00,-6.5,-10.6,30.01,WNW,298,0.0,0.0,82,0.00,-RA,,0.00,0.0,WeatherDisplay:10.37,2013-01-13 11:29:00,
2013-01-13 05:34:00,-6.6,-10.7,30.01,WNW,298,0.0,0.0,82,0.00,-RA,,0.00,0.0,WeatherDisplay:10.37,2013-01-13 11:34:00,
2013-01-13 05:39:00,-6.6,-10.4,30.01,WNW,298,0.0,0.0,83,0.00,-RA,,0.00,0.0,WeatherDisplay:10.37,2013-01-13 11:39:00,
2013-01-13 05:44:00,-6.6,-10.7,30.01,WNW,298,1.1,1.1,82,0.00,-RA,,0.00,0.0,WeatherDisplay:10.37,2013-01-13 11:44:00,
2013-01-13 05:49:00,-6.7,-10.5,30.01,WNW,298,1.1,1.1,83,0.00,-RA,,0.00,0.0,WeatherDisplay:10.37,2013-01-13 11:49:00,
2013-01-13 05:54:00,-6.8,-10.6,30.02,WNW,298,0.0,0.0,83,0.00,-RA,,0.00,0.0,WeatherDisplay:10.37,2013-01-13 11:54:00,
2013-01-13 05:59:00,-6.8,-10.9,30.02,WNW,298,0.0,0.0,82,0.00,-RA,,0.00,0.0,WeatherDisplay:10.37,2013-01-13 11:59:00,
2013-01-13 06:04:00,-6.9,-10.9,30.02,WNW,298,0.0,0.1,82,0.00,-RA,,0.00,0.0,WeatherDisplay:10.37,2013-01-13 12:04:00,
2013-01-13 06:09:00,-7.0,-11.0,30.02,WNW,298,0.0,0.0,82,0.00,-RA,,0.00,0.0,WeatherDisplay:10.37,2013-01-13 12:09:00,
2013-01-13 06:14:00,-7.1,-11.1,30.03,WNW,298,1.1,0.0,82,0.00,-RA,,0.00,0.0,WeatherDisplay:10.37,2013-01-13 12:14:00,
2013-01-13 06:19:00,-7.2,-11.2,30.03,WNW,298,0.0,0.0,82,0.00,-RA,,0.00,0.0,WeatherDisplay:10.37,2013-01-13 12:19:00,
2013-01-13 06:24:00,-7.5,-11.5,30.04,WNW,298,0.0,0.0,82,0.00,-RA,,0.00,0.0,WeatherDisplay:10.37,2013-01-13 12:24:00,
2013-01-13 06:29:00,-7.6,-11.9,30.04,WNW,298,0.0,0.0,81,0.00,-RA,,0.00,0.0,WeatherDisplay:10.37,2013-01-13 12:29:00,
2013-01-13 06:34:00,-7.9,-12.2,30.05,WNW,298,0.0,0.0,81,0.00,-RA,,0.00,0.0,WeatherDisplay:10.37,2013-01-13 12:34:00,
2013-01-13 06:39:00,-8.1,-12.4,30.05,WNW,298,0.0,0.0,81,0.00,-RA,,0.00,0.0,WeatherDisplay:10.37,2013-01-13 12:39:00,
2013-01-13 06:44:00,-8.2,-12.5,30.05,WNW,298,0.0,0.0,81,0.00,-RA,,0.00,0.0,WeatherDisplay:10.37,2013-01-13 12:44:00,
2013-01-13 06:49:00,-8.4,-12.7,30.05,WNW,298,0.0,0.0,81,0.00,-RA,,0.00,0.0,WeatherDisplay:10.37,2013-01-13 12:49:00,
2013-01-13 06:54:00,-8.6,-12.9,30.05,WNW,298,0.0,0.0,81,0.00,-RA,,0.00,0.0,WeatherDisplay:10.37,2013-01-13 12:54:00,
2013-01-13 06:59:00,-8.8,-13.1,30.05,WNW,298,0.0,0.0,81,0.00,-RA,,0.00,0.0,WeatherDisplay:10.37,2013-01-13 12:59:00,
2013-01-13 07:04:00,-9.0,-13.3,30.05,WNW,298,0.0,0.0,81,0.00,-RA,,0.00,0.0,WeatherDisplay:10.37,2013-01-13 13:04:00,
2013-01-13 07:09:00,-9.1,-13.4,30.05,WNW,298,0.0,0.0,81,0.00,-RA,,0.00,0.0,WeatherDisplay:10.37,2013-01-13 13:09:00,
2013-01-13 07:14:00,-9.2,-13.4,30.06,WNW,298,0.0,0.0,81,0.00,-RA,,0.00,0.0,WeatherDisplay:10.37,2013-01-13 13:14:00,
2013-01-13 07:19:00,-9.3,-13.5,30.06,WNW,298,0.0,0.0,81,0.00,-RA,,0.00,0.0,WeatherDisplay:10.37,2013-01-13 13:19:00,
2013-01-13 07:24:00,-9.3,-13.5,30.06,WNW,298,0.0,0.0,81,0.00,-RA,,0.00,0.0,WeatherDisplay:10.37,2013-01-13 13:24:00,
2013-01-13 07:29:00,-9.4,-13.6,30.06,WNW,298,0.0,0.0,81,0.00,-RA,,0.00,0.0,WeatherDisplay:10.37,2013-01-13 13:29:00,
2013-01-13 07:34:00,-9.3,-13.5,30.07,WNW,298,0.0,0.0,81,0.00,-RA,,0.00,0.0,WeatherDisplay:10.37,2013-01-13 13:34:00,
2013-01-13 07:39:00,-9.3,-13.5,30.07,WNW,298,0.0,0.0,81,0.00,-RA,,0.00,0.0,WeatherDisplay:10.37,2013-01-13 13:39:00,
2013-01-13 07:44:00,-9.3,-13.3,30.07,WNW,298,0.0,0.0,82,0.00,-RA,,0.00,0.0,WeatherDisplay:10.37,2013-01-13 13:44:00,
2013-01-13 07:49:00,-9.3,-13.3,30.07,WNW,298,0.0,0.0,82,0.00,-RA,,0.00,0.0,WeatherDisplay:10.37,2013-01-13 13:49:00,
2013-01-13 07:54:00,-9.3,-13.3,30.07,WNW,298,0.0,0.0,82,0.00,-RA,,0.00,0.0,WeatherDisplay:10.37,2013-01-13 13:54:00,
2013-01-13 07:59:00,-9.2,-13.2,30.08,WNW,298,0.0,0.0,82,0.00,-RA,,0.00,0.0,WeatherDisplay:10.37,2013-01-13 13:59:00,
2013-01-13 08:04:00,-9.1,-13.1,30.08,WNW,298,0.0,0.0,82,0.00,-RA,,0.00,0.0,WeatherDisplay:10.37,2013-01-13 14:04:00,
2013-01-13 08:09:00,-9.1,-13.1,30.08,WNW,298,0.0,0.0,82,0.00,-RA,,0.00,0.0,WeatherDisplay:10.37,2013-01-13 14:09:00,
2013-01-13 08:14:00,-9.0,-13.0,30.08,WNW,298,0.0,0.0,82,0.00,-RA,,0.00,0.0,WeatherDisplay:10.37,2013-01-13 14:14:00,
2013-01-13 08:19:00,-8.9,-12.9,30.08,WNW,298,0.0,0.0,82,0.00,-RA,,0.00,5.0,WeatherDisplay:10.37,2013-01-13 14:19:00,
2013-01-13 08:24:00,-8.9,-12.9,30.08,WNW,298,0.0,0.0,82,0.00,-RA,,0.00,5.0,WeatherDisplay:10.37,2013-01-13 14:24:00,
2013-01-13 08:29:00,-8.8,-12.8,30.08,WNW,298,0.0,0.0,82,0.00,-RA,,0.00,7.0,WeatherDisplay:10.37,2013-01-13 14:29:00,
2013-01-13 08:34:00,-8.7,-12.7,30.08,WNW,298,0.0,0.0,82,0.00,-RA,,0.00,7.0,WeatherDisplay:10.37,2013-01-13 14:34:00,
2013-01-13 08:39:00,-8.7,-12.7,30.08,WNW,298,0.0,0.0,82,0.00,-RA,,0.00,9.0,WeatherDisplay:10.37,2013-01-13 14:39:00,
2013-01-13 08:44:00,-8.6,-12.6,30.08,WNW,298,0.0,0.0,82,0.00,-RA,,0.00,11.0,WeatherDisplay:10.37,2013-01-13 14:44:00,
2013-01-13 08:49:00,-8.5,-12.5,30.08,WNW,298,0.0,0.0,82,0.00,-RA,,0.00,12.0,WeatherDisplay:10.37,2013-01-13 14:49:00,
2013-01-13 08:54:00,-8.4,-12.4,30.08,WNW,298,0.0,0.0,82,0.00,-RA,,0.00,14.0,WeatherDisplay:10.37,2013-01-13 14:54:00,
2013-01-13 08:59:00,-8.3,-12.3,30.09,WNW,298,0.0,0.0,82,0.00,-RA,,0.00,16.0,WeatherDisplay:10.37,2013-01-13 14:59:00,
2013-01-13 09:04:00,-8.1,-11.9,30.08,WNW,298,2.3,2.3,83,0.00,-RA,,0.00,16.0,WeatherDisplay:10.37,2013-01-13 15:04:00,
2013-01-13 09:09:00,-8.0,-11.8,30.09,WNW,298,0.0,0.0,83,0.00,-RA,,0.00,21.0,WeatherDisplay:10.37,2013-01-13 15:09:00,
2013-01-13 09:14:00,-7.9,-11.7,30.09,WNW,298,0.0,0.0,83,0.00,-RA,,0.00,21.0,WeatherDisplay:10.37,2013-01-13 15:14:00,
2013-01-13 09:19:00,-7.6,-11.4,30.09,WNW,298,0.0,0.0,83,0.00,-RA,,0.00,21.0,WeatherDisplay:10.37,2013-01-13 15:19:00,
2013-01-13 09:24:00,-7.4,-11.2,30.09,WNW,298,0.0,0.0,83,0.00,-RA,,0.00,25.0,WeatherDisplay:10.37,2013-01-13 15:24:00,
2013-01-13 09:29:00,-7.2,-11.0,30.09,WNW,298,1.1,0.0,83,0.00,-RA,,0.00,26.0,WeatherDisplay:10.37,2013-01-13 15:29:00,
2013-01-13 09:34:00,-6.9,-10.7,30.08,WNW,298,0.0,0.0,83,0.00,-RA,,0.00,25.0,WeatherDisplay:10.37,2013-01-13 15:34:00,
2013-01-13 09:39:00,-6.6,-10.4,30.08,WNW,298,0.0,0.0,83,0.00,-RA,,0.00,25.0,WeatherDisplay:10.37,2013-01-13 15:39:00,
2013-01-13 09:44:00,-6.4,-10.2,30.08,WNW,298,0.0,0.0,83,0.00,-RA,,0.00,23.0,WeatherDisplay:10.37,2013-01-13 15:44:00,
2013-01-13 09:49:00,-6.2,-10.0,30.08,WNW,298,0.0,0.0,83,0.00,-RA,,0.00,23.0,WeatherDisplay:10.37,2013-01-13 15:49:00,
2013-01-13 09:54:00,-5.9,-9.7,30.08,WNW,298,0.0,0.0,83,0.00,-RA,,0.00,23.0,WeatherDisplay:10.37,2013-01-13 15:54:00,
2013-01-13 09:59:00,-5.7,-9.5,30.08,WNW,298,0.0,0.0,83,0.00,-RA,,0.00,26.0,WeatherDisplay:10.37,2013-01-13 15:59:00,
2013-01-13 10:04:00,-5.6,-9.4,30.08,WNW,298,1.1,0.0,83,0.00,-RA,,0.00,26.0,WeatherDisplay:10.37,2013-01-13 16:04:00,
2013-01-13 10:09:00,-5.5,-9.3,30.08,WNW,298,2.3,2.3,83,0.00,-RA,,0.00,28.0,WeatherDisplay:10.37,2013-01-13 16:09:00,
2013-01-13 10:14:00,-5.2,-9.0,30.08,WNW,298,0.0,0.0,83,0.00,-RA,,0.00,30.0,WeatherDisplay:10.37,2013-01-13 16:14:00,
2013-01-13 10:19:00,-5.0,-8.8,30.08,WNW,298,2.3,2.3,83,0.00,-RA,,0.00,32.0,WeatherDisplay:10.37,2013-01-13 16:19:00,
2013-01-13 10:24:00,-4.7,-8.5,30.08,WNW,298,0.0,0.0,83,0.00,-RA,,0.00,33.0,WeatherDisplay:10.37,2013-01-13 16:24:00,
2013-01-13 10:29:00,-4.5,-8.4,30.08,WNW,298,0.0,0.0,83,0.00,-RA,,0.00,35.0,WeatherDisplay:10.37,2013-01-13 16:29:00,
2013-01-13 10:34:00,-4.2,-8.1,30.09,WNW,298,0.0,0.0,83,0.00,-RA,,0.00,37.0,WeatherDisplay:10.37,2013-01-13 16:34:00,
2013-01-13 10:39:00,-3.9,-7.8,30.09,WNW,298,0.0,0.0,83,0.00,-RA,,0.00,40.0,WeatherDisplay:10.37,2013-01-13 16:39:00,
2013-01-13 10:44:00,-3.5,-7.4,30.09,WNW,298,0.0,0.0,83,0.00,-RA,,0.00,42.0,WeatherDisplay:10.37,2013-01-13 16:44:00,
2013-01-13 10:49:00,-3.3,-7.2,30.08,WNW,298,0.0,0.0,83,0.00,-RA,,0.00,44.0,WeatherDisplay:10.37,2013-01-13 16:49:00,
2013-01-13 10:54:00,-3.0,-6.9,30.08,WNW,298,0.0,0.0,83,0.00,-RA,,0.00,44.0,WeatherDisplay:10.37,2013-01-13 16:54:00,
2013-01-13 10:59:00,-2.5,-6.4,30.08,WNW,298,0.0,0.0,83,0.00,-RA,,0.00,47.0,WeatherDisplay:10.37,2013-01-13 16:59:00,
2013-01-13 11:04:00,-2.2,-6.1,30.08,WNW,298,0.0,0.0,83,0.00,-RA,,0.00,49.0,WeatherDisplay:10.37,2013-01-13 17:04:00,
2013-01-13 11:09:00,-1.8,-5.7,30.07,WNW,298,0.0,0.0,83,0.00,-RA,,0.00,51.0,WeatherDisplay:10.37,2013-01-13 17:09:00,
2013-01-13 11:14:00,-1.5,-5.4,30.07,WNW,298,0.0,0.0,83,0.00,-RA,,0.00,53.0,WeatherDisplay:10.37,2013-01-13 17:14:00,
2013-01-13 11:19:00,-1.1,-5.0,30.07,WNW,298,0.0,0.0,83,0.00,-RA,,0.00,51.0,WeatherDisplay:10.37,2013-01-13 17:19:00,
2013-01-13 11:24:00,-0.7,-4.6,30.07,WNW,298,0.0,0.0,83,0.00,-RA,,0.00,51.0,WeatherDisplay:10.37,2013-01-13 17:24:00,
2013-01-13 11:30:00,-0.4,-4.3,30.07,WNW,298,1.1,0.0,83,0.00,-RA,,0.00,53.0,WeatherDisplay:10.37,2013-01-13 17:30:00,
2013-01-13 11:35:00,0.0,-4.2,30.06,WNW,298,0.0,0.0,82,0.00,-RA,,0.00,56.0,WeatherDisplay:10.37,2013-01-13 17:35:00,
2013-01-13 11:40:00,0.2,-4.0,30.06,WNW,298,0.0,0.0,82,0.00,-RA,,0.00,62.0,WeatherDisplay:10.37,2013-01-13 17:40:00,
2013-01-13 11:45:00,0.5,-3.7,30.05,WNW,298,0.0,0.0,82,0.00,-RA,,0.00,62.0,WeatherDisplay:10.37,2013-01-13 17:45:00,
2013-01-13 11:50:00,0.8,-3.7,30.05,WNW,298,0.0,0.0,81,0.00,-RA,,0.00,62.0,WeatherDisplay:10.37,2013-01-13 17:50:00,
2013-01-13 11:55:00,1.1,-3.4,30.05,WNW,298,0.0,0.0,81,0.00,-RA,,0.00,65.0,WeatherDisplay:10.37,2013-01-13 17:55:00,
2013-01-13 12:00:00,1.5,-3.0,30.04,WNW,298,0.0,0.0,81,0.00,-RA,,0.00,72.0,WeatherDisplay:10.37,2013-01-13 18:00:00,
2013-01-13 12:05:00,1.9,-2.3,30.04,WNW,298,0.0,0.0,82,0.00,-RA,,0.00,69.0,WeatherDisplay:10.37,2013-01-13 18:05:00,
2013-01-13 12:10:00,2.2,-2.3,30.04,WNW,298,1.1,1.1,81,0.00,-RA,,0.00,77.0,WeatherDisplay:10.37,2013-01-13 18:10:00,
2013-01-13 12:15:00,2.8,-2.0,30.04,WNW,298,0.0,0.0,80,0.00,-RA,,0.00,69.0,WeatherDisplay:10.37,2013-01-13 18:15:00,
2013-01-13 12:20:00,3.2,-1.8,30.04,WNW,298,0.0,0.0,79,0.00,-RA,,0.00,63.0,WeatherDisplay:10.37,2013-01-13 18:20:00,
2013-01-13 12:25:00,3.4,-1.7,30.03,WNW,298,0.0,0.0,79,0.00,-RA,,0.00,62.0,WeatherDisplay:10.37,2013-01-13 18:25:00,
2013-01-13 12:30:00,3.7,-1.4,30.03,WNW,298,0.0,0.0,79,0.00,-RA,,0.00,60.0,WeatherDisplay:10.37,2013-01-13 18:30:00,
2013-01-13 12:35:00,4.0,-1.1,30.03,WNW,298,0.0,0.0,79,0.00,-RA,,0.00,65.0,WeatherDisplay:10.37,2013-01-13 18:35:00,
2013-01-13 12:40:00,3.9,-1.4,30.03,WNW,298,0.0,0.0,78,0.00,-RA,,0.00,60.0,WeatherDisplay:10.37,2013-01-13 18:40:00,
2013-01-13 12:45:00,4.0,-1.3,30.02,WNW,298,0.0,0.0,78,0.00,-RA,,0.00,56.0,WeatherDisplay:10.37,2013-01-13 18:45:00,
2013-01-13 12:50:00,4.4,-0.9,30.02,WNW,298,0.0,0.0,78,0.00,-RA,,0.00,60.0,WeatherDisplay:10.37,2013-01-13 18:50:00,
2013-01-13 12:55:00,4.4,-1.2,30.01,WNW,298,0.0,0.0,77,0.00,-RA,,0.00,67.0,WeatherDisplay:10.37,2013-01-13 18:55:00,
2013-01-13 13:00:00,4.4,-0.9,30.01,WNW,298,2.3,2.3,78,0.00,-RA,,0.00,67.0,WeatherDisplay:10.37,2013-01-13 19:00:00,
2013-01-13 13:05:00,4.5,-0.8,30.01,WNW,298,1.1,0.0,78,0.00,-RA,,0.00,83.0,WeatherDisplay:10.37,2013-01-13 19:05:00,
2013-01-13 13:10:00,4.8,-0.6,30.01,WNW,298,1.1,1.1,78,0.00,-RA,,0.00,84.0,WeatherDisplay:10.37,2013-01-13 19:10:00,
2013-01-13 13:15:00,5.0,-0.4,30.01,WNW,298,2.3,2.3,78,0.00,-RA,,0.00,74.0,WeatherDisplay:10.37,2013-01-13 19:15:00,
2013-01-13 13:20:00,5.3,-0.1,30.01,WNW,298,0.0,0.0,78,0.00,-RA,,0.00,70.0,WeatherDisplay:10.37,2013-01-13 19:20:00,
2013-01-13 13:25:00,5.4,0.0,30.01,WNW,298,0.0,0.0,78,0.00,-RA,,0.00,77.0,WeatherDisplay:10.37,2013-01-13 19:25:00,
2013-01-13 13:30:00,5.8,0.4,30.01,WNW,298,2.0,2.0,78,0.00,-RA,,0.00,91.0,WeatherDisplay:10.37,2013-01-13 19:30:00,
2013-01-13 13:35:00,6.3,0.9,30.00,WNW,299,3.5,3.5,78,0.00,-RA,,0.00,104.0,WeatherDisplay:10.37,2013-01-13 19:35:00,
2013-01-13 13:40:00,6.5,1.1,30.00,WNW,299,2.3,2.3,78,0.00,-RA,,0.00,111.0,WeatherDisplay:10.37,2013-01-13 19:40:00,
2013-01-13 13:45:00,6.9,1.5,30.00,WNW,299,1.1,0.0,78,0.00,-RA,,0.00,113.0,WeatherDisplay:10.37,2013-01-13 19:45:00,
2013-01-13 13:50:00,7.3,2.2,30.00,NW,306,3.5,3.5,79,0.00,-RA,,0.00,107.0,WeatherDisplay:10.37,2013-01-13 19:50:00,
2013-01-13 13:55:00,7.7,2.5,30.01,NW,306,1.1,1.1,79,0.00,-RA,,0.00,95.0,WeatherDisplay:10.37,2013-01-13 19:55:00,
2013-01-13 14:00:00,8.3,2.9,30.00,WNW,293,2.3,2.3,78,0.00,-RA,,0.00,74.0,WeatherDisplay:10.37,2013-01-13 20:00:00,
2013-01-13 14:05:00,8.6,3.4,30.00,WNW,292,0.0,0.0,79,0.00,-RA,,0.00,69.0,WeatherDisplay:10.37,2013-01-13 20:05:00,
2013-01-13 14:10:00,9.1,3.6,30.00,WNW,291,1.1,1.1,78,0.00,-RA,,0.00,63.0,WeatherDisplay:10.37,2013-01-13 20:10:00,
2013-01-13 14:15:00,9.2,3.4,30.01,WNW,291,1.0,0.0,77,0.00,-RA,,0.00,63.0,WeatherDisplay:10.37,2013-01-13 20:15:00,
2013-01-13 14:20:00,9.4,3.6,30.01,WNW,291,1.1,0.0,77,0.00,-RA,,0.00,51.0,WeatherDisplay:10.37,2013-01-13 20:20:00,
2013-01-13 14:25:00,9.4,3.6,30.01,WNW,291,1.1,1.1,77,0.00,-RA,,0.00,39.0,WeatherDisplay:10.37,2013-01-13 20:25:00,
2013-01-13 14:30:00,9.3,3.5,30.02,WNW,291,3.5,3.5,77,0.00,-RA,,0.00,33.0,WeatherDisplay:10.37,2013-01-13 20:30:00,
2013-01-13 14:35:00,9.1,3.1,30.02,WNW,291,1.1,1.1,76,0.00,-RA,,0.00,32.0,WeatherDisplay:10.37,2013-01-13 20:35:00,
2013-01-13 14:40:00,9.0,3.0,30.02,WNW,291,0.0,0.0,76,0.00,-RA,,0.00,39.0,WeatherDisplay:10.37,2013-01-13 20:40:00,
2013-01-13 14:45:00,8.9,2.9,30.02,WNW,291,1.0,0.0,76,0.00,-RA,,0.00,30.0,WeatherDisplay:10.37,2013-01-13 20:45:00,
2013-01-13 14:50:00,8.9,2.9,30.02,WNW,291,0.0,0.2,76,0.00,-RA,,0.00,28.0,WeatherDisplay:10.37,2013-01-13 20:50:00,
2013-01-13 14:55:00,8.7,2.4,30.02,WNW,291,1.1,0.0,75,0.00,-RA,,0.00,28.0,WeatherDisplay:10.37,2013-01-13 20:55:00,
2013-01-13 15:00:00,8.5,2.2,30.02,WNW,291,2.0,2.0,75,0.00,-RA,,0.00,30.0,WeatherDisplay:10.37,2013-01-13 21:00:00,
2013-01-13 15:05:00,8.3,1.7,30.03,WNW,289,3.5,0.0,74,0.00,-RA,,0.00,32.0,WeatherDisplay:10.37,2013-01-13 21:05:00,
2013-01-13 15:10:00,8.0,1.4,30.03,WNW,288,3.5,3.5,74,0.00,-RA,,0.00,33.0,WeatherDisplay:10.37,2013-01-13 21:10:00,
2013-01-13 15:15:00,7.8,1.2,30.03,WNW,285,3.5,3.5,74,0.00,-RA,,0.00,37.0,WeatherDisplay:10.37,2013-01-13 21:15:00,
2013-01-13 15:20:00,7.5,0.7,30.03,WNW,288,4.6,4.6,73,0.00,-RA,,0.00,37.0,WeatherDisplay:10.37,2013-01-13 21:20:00,
2013-01-13 15:25:00,7.2,0.1,30.03,West,260,5.8,5.8,72,0.00,-RA,,0.00,33.0,WeatherDisplay:10.37,2013-01-13 21:25:00,
2013-01-13 15:30:00,6.9,-0.2,30.03,West,260,3.5,3.5,72,0.00,-RA,,0.00,28.0,WeatherDisplay:10.37,2013-01-13 21:30:00,
2013-01-13 15:35:00,6.6,-0.5,30.03,West,261,1.1,1.1,72,0.00,-RA,,0.00,40.0,WeatherDisplay:10.37,2013-01-13 21:35:00,
2013-01-13 15:40:00,6.3,-0.5,30.04,West,263,4.6,0.0,73,0.00,-RA,,0.00,44.0,WeatherDisplay:10.37,2013-01-13 21:40:00,
2013-01-13 15:45:00,6.2,-0.6,30.04,West,263,0.0,0.1,73,0.00,-RA,,0.00,58.0,WeatherDisplay:10.37,2013-01-13 21:45:00,
2013-01-13 15:50:00,6.1,-0.4,30.04,West,264,2.3,0.0,74,0.00,-RA,,0.00,53.0,WeatherDisplay:10.37,2013-01-13 21:50:00,
2013-01-13 15:55:00,6.1,-0.7,30.03,West,264,1.1,0.0,73,0.00,-RA,,0.00,25.0,WeatherDisplay:10.37,2013-01-13 21:55:00,
2013-01-13 16:00:00,6.0,-0.8,30.04,West,264,1.1,1.1,73,0.00,-RA,,0.00,19.0,WeatherDisplay:10.37,2013-01-13 22:00:00,
2013-01-13 16:05:00,5.9,-0.9,30.04,West,265,0.0,0.0,73,0.00,-RA,,0.00,14.0,WeatherDisplay:10.37,2013-01-13 22:05:00,
2013-01-13 16:10:00,5.7,-1.1,30.04,West,265,1.1,0.0,73,0.00,-RA,,0.00,11.0,WeatherDisplay:10.37,2013-01-13 22:10:00,
2013-01-13 16:15:00,5.5,-1.3,30.04,West,264,0.0,0.0,73,0.00,-RA,,0.00,11.0,WeatherDisplay:10.37,2013-01-13 22:15:00,
2013-01-13 16:20:00,5.2,-1.6,30.04,West,265,0.0,0.0,73,0.00,-RA,,0.00,9.0,WeatherDisplay:10.37,2013-01-13 22:20:00,
2013-01-13 16:25:00,5.0,-1.8,30.04,West,264,0.0,0.0,73,0.00,-RA,,0.00,9.0,WeatherDisplay:10.37,2013-01-13 22:25:00,
2013-01-13 16:30:00,4.7,-2.1,30.04,West,264,0.0,0.0,73,0.00,-RA,,0.00,9.0,WeatherDisplay:10.37,2013-01-13 22:30:00,
2013-01-13 16:35:00,4.5,-2.0,30.04,West,265,0.0,0.0,74,0.00,-RA,,0.00,7.0,WeatherDisplay:10.37,2013-01-13 22:35:00,
2013-01-13 16:40:00,4.1,-2.4,30.04,West,265,0.0,0.0,74,0.00,-RA,,0.00,7.0,WeatherDisplay:10.37,2013-01-13 22:40:00,
2013-01-13 16:45:00,3.8,-2.4,30.04,West,265,0.0,0.0,75,0.00,-RA,,0.00,0.0,WeatherDisplay:10.37,2013-01-13 22:45:00,
2013-01-13 16:50:00,3.5,-2.7,30.04,West,265,2.0,2.0,75,0.00,-RA,,0.00,0.0,WeatherDisplay:10.37,2013-01-13 22:50:00,
2013-01-13 16:55:00,3.2,-2.9,30.04,West,265,2.3,2.3,75,0.00,-RA,,0.00,0.0,WeatherDisplay:10.37,2013-01-13 22:55:00,
2013-01-13 17:00:00,2.8,-3.1,30.04,West,265,0.0,0.0,76,0.00,-RA,,0.00,0.0,WeatherDisplay:10.37,2013-01-13 23:00:00,
2013-01-13 17:05:00,2.7,-3.1,30.04,West,264,2.3,2.3,76,0.00,-RA,,0.00,0.0,WeatherDisplay:10.37,2013-01-13 23:05:00,
2013-01-13 17:10:00,2.4,-3.4,30.04,West,265,0.0,0.0,76,0.00,-RA,,0.00,0.0,WeatherDisplay:10.37,2013-01-13 23:10:00,
2013-01-13 17:15:00,2.2,-3.4,30.04,West,264,1.0,1.0,77,0.00,-RA,,0.00,0.0,WeatherDisplay:10.37,2013-01-13 23:15:00,
2013-01-13 17:20:00,2.0,-3.6,30.04,West,265,3.5,0.0,77,0.00,-RA,,0.00,0.0,WeatherDisplay:10.37,2013-01-13 23:20:00,
2013-01-13 17:25:00,1.9,-3.4,30.04,West,265,3.5,0.0,78,0.00,-RA,,0.00,0.0,WeatherDisplay:10.37,2013-01-13 23:25:00,
2013-01-13 17:30:00,1.9,-3.1,30.05,West,265,0.0,0.0,79,0.00,-RA,,0.00,0.0,WeatherDisplay:10.37,2013-01-13 23:30:00,
2013-01-13 17:35:00,1.8,-3.2,30.04,West,265,0.0,0.0,79,0.00,-RA,,0.00,0.0,WeatherDisplay:10.37,2013-01-13 23:35:00,
2013-01-13 17:40:00,1.8,-2.9,30.04,West,265,2.3,0.0,80,0.00,-RA,,0.00,0.0,WeatherDisplay:10.37,2013-01-13 23:40:00,
2013-01-13 17:45:00,1.8,-2.9,30.04,West,265,0.0,0.0,80,0.00,-RA,,0.00,0.0,WeatherDisplay:10.37,2013-01-13 23:45:00,
2013-01-13 17:50:00,1.8,-2.9,30.05,West,265,3.5,3.5,80,0.00,-RA,,0.00,0.0,WeatherDisplay:10.37,2013-01-13 23:50:00,
2013-01-13 17:55:00,1.9,-2.6,30.05,West,264,3.0,3.0,81,0.00,-RA,,0.00,0.0,WeatherDisplay:10.37,2013-01-13 23:55:00,
2013-01-13 18:01:00,1.9,-2.6,30.05,West,263,1.1,1.1,81,0.00,-RA,,0.00,0.0,WeatherDisplay:10.37,2013-01-14 00:01:00,
2013-01-13 18:06:00,2.0,-2.2,30.05,NW,304,0.0,0.0,82,0.00,-RA,,0.00,0.0,WeatherDisplay:10.37,2013-01-14 00:06:00,
2013-01-13 18:11:00,2.1,-2.1,30.05,WNW,291,3.5,3.5,82,0.00,-RA,,0.00,0.0,WeatherDisplay:10.37,2013-01-14 00:11:00,
2013-01-13 18:16:00,2.2,0.4,30.05,WNW,289,3.5,3.5,92,0.00,-RA,,0.00,0.0,WeatherDisplay:10.37,2013-01-14 00:16:00,
2013-01-13 18:21:00,2.2,-2.0,30.05,WNW,288,2.3,2.3,82,0.00,-RA,,0.00,0.0,WeatherDisplay:10.37,2013-01-14 00:21:00,
2013-01-13 18:26:00,2.3,-1.9,30.05,West,274,5.8,5.8,82,0.00,-RA,,0.00,0.0,WeatherDisplay:10.37,2013-01-14 00:26:00,
2013-01-13 18:31:00,2.3,-1.7,30.05,West,281,2.3,2.3,83,0.00,-RA,,0.00,0.0,WeatherDisplay:10.37,2013-01-14 00:31:00,
2013-01-13 18:36:00,2.4,-1.6,30.05,WNW,296,2.0,2.0,83,0.00,-RA,,0.00,0.0,WeatherDisplay:10.37,2013-01-14 00:36:00,
2013-01-13 18:41:00,2.4,-1.6,30.05,West,268,3.5,3.5,83,0.00,-RA,,0.00,0.0,WeatherDisplay:10.37,2013-01-14 00:41:00,
2013-01-13 18:46:00,2.4,-1.6,30.05,West,267,1.0,1.0,83,0.00,-RA,,0.00,0.0,WeatherDisplay:10.37,2013-01-14 00:46:00,
2013-01-13 18:51:00,2.3,-1.7,30.05,West,267,3.5,3.5,83,0.00,-RA,,0.00,0.0,WeatherDisplay:10.37,2013-01-14 00:51:00,
2013-01-13 18:56:00,2.3,-1.7,30.05,West,270,1.1,1.1,83,0.00,-RA,,0.00,0.0,WeatherDisplay:10.37,2013-01-14 00:56:00,
2013-01-13 19:01:00,2.2,-2.0,30.06,West,262,3.5,3.5,82,0.00,-RA,,0.00,0.0,WeatherDisplay:10.37,2013-01-14 01:01:00,
2013-01-13 19:06:00,2.2,-2.0,30.06,West,267,4.6,4.6,82,0.00,-RA,,0.00,0.0,WeatherDisplay:10.37,2013-01-14 01:06:00,
2013-01-13 19:11:00,2.0,-2.2,30.06,WNW,296,2.3,2.3,82,0.00,-RA,,0.00,0.0,WeatherDisplay:10.37,2013-01-14 01:11:00,
2013-01-13 19:16:00,1.9,-2.3,30.06,WNW,298,4.0,4.0,82,0.00,-RA,,0.00,0.0,WeatherDisplay:10.37,2013-01-14 01:16:00,
2013-01-13 19:21:00,1.8,-2.4,30.06,West,279,3.5,3.5,82,0.00,-RA,,0.00,0.0,WeatherDisplay:10.37,2013-01-14 01:21:00,
2013-01-13 19:26:00,1.7,-2.8,30.06,West,280,3.5,3.5,81,0.00,-RA,,0.00,0.0,WeatherDisplay:10.37,2013-01-14 01:26:00,
2013-01-13 19:31:00,1.5,-3.0,30.06,West,279,0.0,0.0,81,0.00,-RA,,0.00,0.0,WeatherDisplay:10.37,2013-01-14 01:31:00,
2013-01-13 19:36:00,1.5,-3.0,30.07,WNW,302,2.3,2.3,81,0.00,-RA,,0.00,0.0,WeatherDisplay:10.37,2013-01-14 01:36:00,
2013-01-13 19:41:00,1.4,-3.1,30.07,West,270,3.5,3.5,81,0.00,-RA,,0.00,0.0,WeatherDisplay:10.37,2013-01-14 01:41:00,
2013-01-13 19:46:00,1.3,-3.2,30.07,West,269,0.0,0.0,81,0.00,-RA,,0.00,0.0,WeatherDisplay:10.37,2013-01-14 01:46:00,
2013-01-13 19:51:00,1.2,-3.0,30.07,West,275,3.5,3.5,82,0.00,-RA,,0.00,0.0,WeatherDisplay:10.37,2013-01-14 01:51:00,
2013-01-13 19:56:00,1.1,-3.4,30.07,West,271,6.0,6.0,81,0.00,-RA,,0.00,0.0,WeatherDisplay:10.37,2013-01-14 01:56:00,
2013-01-13 20:01:00,1.0,-3.5,30.07,West,275,3.5,3.5,81,0.00,-RA,,0.00,0.0,WeatherDisplay:10.37,2013-01-14 02:01:00,
2013-01-13 20:06:00,0.8,-3.7,30.07,WSW,254,3.5,3.5,81,0.00,-RA,,0.00,0.0,WeatherDisplay:10.37,2013-01-14 02:06:00,
2013-01-13 20:11:00,0.6,-3.9,30.07,West,259,3.5,3.5,81,0.00,-RA,,0.00,0.0,WeatherDisplay:10.37,2013-01-14 02:11:00,
2013-01-13 20:16:00,0.4,-4.1,30.07,West,277,3.5,3.5,81,0.00,-RA,,0.00,0.0,WeatherDisplay:10.37,2013-01-14 02:16:00,
2013-01-13 20:21:00,0.3,-4.2,30.07,West,277,3.5,3.5,81,0.00,-RA,,0.00,0.0,WeatherDisplay:10.37,2013-01-14 02:21:00,
2013-01-13 20:26:00,0.1,-4.3,30.07,West,277,2.0,2.0,81,0.00,-RA,,0.00,0.0,WeatherDisplay:10.37,2013-01-14 02:26:00,
2013-01-13 20:31:00,0.1,-4.3,30.08,West,273,3.5,3.5,81,0.00,-RA,,0.00,0.0,WeatherDisplay:10.37,2013-01-14 02:31:00,
2013-01-13 20:36:00,0.0,-4.4,30.08,West,275,3.5,3.5,81,0.00,-RA,,0.00,0.0,WeatherDisplay:10.37,2013-01-14 02:36:00,
2013-01-13 20:41:00,0.0,-4.4,30.07,West,277,2.3,2.3,81,0.00,-RA,,0.00,0.0,WeatherDisplay:10.37,2013-01-14 02:41:00,
2013-01-13 20:46:00,-0.1,-4.5,30.08,WNW,289,4.6,4.6,81,0.00,-RA,,0.00,0.0,WeatherDisplay:10.37,2013-01-14 02:46:00,
2013-01-13 20:51:00,-0.1,-4.5,30.08,West,271,3.5,3.5,81,0.00,-RA,,0.00,0.0,WeatherDisplay:10.37,2013-01-14 02:51:00,
2013-01-13 20:56:00,-0.3,-4.7,30.08,WNW,296,3.5,3.5,81,0.00,-RA,,0.00,0.0,WeatherDisplay:10.37,2013-01-14 02:56:00,
2013-01-13 21:01:00,-0.3,-4.5,30.08,WNW,298,1.0,0.0,82,0.00,-RA,,0.00,0.0,WeatherDisplay:10.37,2013-01-14 03:01:00,
2013-01-13 21:06:00,-0.4,-4.8,30.08,West,267,4.6,4.6,81,0.00,-RA,,0.00,0.0,WeatherDisplay:10.37,2013-01-14 03:06:00,
2013-01-13 21:11:00,-0.4,-4.8,30.08,West,277,2.3,2.3,81,0.00,-RA,,0.00,0.0,WeatherDisplay:10.37,2013-01-14 03:11:00,
2013-01-13 21:16:00,-0.5,-4.9,30.08,West,277,2.3,2.3,81,0.00,-RA,,0.00,0.0,WeatherDisplay:10.37,2013-01-14 03:16:00,
2013-01-13 21:21:00,-0.5,-4.7,30.08,West,275,1.1,1.4,82,0.00,-RA,,0.00,0.0,WeatherDisplay:10.37,2013-01-14 03:21:00,
2013-01-13 21:26:00,-0.5,-4.7,30.08,WNW,288,2.0,2.0,82,0.00,-RA,,0.00,0.0,WeatherDisplay:10.37,2013-01-14 03:26:00,
2013-01-13 21:31:00,-0.6,-4.8,30.09,West,277,5.0,5.0,82,0.00,-RA,,0.00,0.0,WeatherDisplay:10.37,2013-01-14 03:31:00,
2013-01-13 21:36:00,-0.7,-4.9,30.09,West,273,4.6,4.6,82,0.00,-RA,,0.00,0.0,WeatherDisplay:10.37,2013-01-14 03:36:00,
2013-01-13 21:41:00,-0.7,-4.9,30.09,West,273,0.0,0.0,82,0.00,-RA,,0.00,0.0,WeatherDisplay:10.37,2013-01-14 03:41:00,
2013-01-13 21:46:00,-0.7,-4.9,30.09,West,277,1.1,0.0,82,0.00,-RA,,0.00,0.0,WeatherDisplay:10.37,2013-01-14 03:46:00,
2013-01-13 21:51:00,-0.7,-4.9,30.09,West,272,3.5,3.5,82,0.00,-RA,,0.00,0.0,WeatherDisplay:10.37,2013-01-14 03:51:00,
2013-01-13 21:56:00,-0.8,-5.0,30.09,West,273,4.6,4.6,82,0.00,-RA,,0.00,0.0,WeatherDisplay:10.37,2013-01-14 03:56:00,
2013-01-13 22:01:00,-0.9,-5.1,30.10,West,276,2.3,2.3,82,0.00,-RA,,0.00,0.0,WeatherDisplay:10.37,2013-01-14 04:01:00,
2013-01-13 22:06:00,-1.0,-5.2,30.10,WNW,286,3.5,3.5,82,0.00,-RA,,0.00,0.0,WeatherDisplay:10.37,2013-01-14 04:06:00,
2013-01-13 22:11:00,-1.0,-5.4,30.10,WNW,286,3.5,3.5,81,0.00,-RA,,0.00,0.0,WeatherDisplay:10.37,2013-01-14 04:11:00,
2013-01-13 22:16:00,-1.1,-5.3,30.10,WNW,288,2.3,2.3,82,0.00,-RA,,0.00,0.0,WeatherDisplay:10.37,2013-01-14 04:16:00,
2013-01-13 22:21:00,-1.2,-5.4,30.11,WNW,289,3.5,3.5,82,0.00,-RA,,0.00,0.0,WeatherDisplay:10.37,2013-01-14 04:21:00,
2013-01-13 22:26:00,-1.3,-5.5,30.11,WNW,289,0.0,0.0,82,0.00,-RA,,0.00,0.0,WeatherDisplay:10.37,2013-01-14 04:26:00,
2013-01-13 22:31:00,-1.4,-5.6,30.11,WNW,290,1.1,0.0,82,0.00,-RA,,0.00,0.0,WeatherDisplay:10.37,2013-01-14 04:31:00,
2013-01-13 22:36:00,-1.4,-5.6,30.11,WNW,290,2.3,2.3,82,0.00,-RA,,0.00,0.0,WeatherDisplay:10.37,2013-01-14 04:36:00,
2013-01-13 22:41:00,-1.5,-5.7,30.11,WNW,292,2.0,2.0,82,0.00,-RA,,0.00,0.0,WeatherDisplay:10.37,2013-01-14 04:41:00,
2013-01-13 22:46:00,-1.4,-5.6,30.11,WNW,287,3.5,3.5,82,0.00,-RA,,0.00,0.0,WeatherDisplay:10.37,2013-01-14 04:46:00,
2013-01-13 22:51:00,-1.5,-5.7,30.11,WNW,288,0.0,0.1,82,0.00,-RA,,0.00,0.0,WeatherDisplay:10.37,2013-01-14 04:51:00,
2013-01-13 22:56:00,-1.4,-5.6,30.11,WNW,287,0.0,0.0,82,0.00,-RA,,0.00,0.0,WeatherDisplay:10.37,2013-01-14 04:56:00,
2013-01-13 23:00:00,-1.5,-5.7,30.12,NNW,344,4.6,4.6,82,0.00,-RA,,0.00,0.0,WeatherDisplay:10.37,2013-01-14 05:00:00,
2013-01-13 23:01:00,-1.5,-5.7,30.12,NW,317,3.5,0.0,82,0.00,-RA,,0.00,0.0,WeatherDisplay:10.37,2013-01-14 05:01:00,
2013-01-13 23:03:00,-1.4,-5.6,30.12,West,281,3.5,3.5,82,0.00,-RA,,0.00,0.0,WeatherDisplay:10.37,2013-01-14 05:03:00,
2013-01-13 23:04:00,-1.4,-5.6,30.12,WNW,284,3.5,3.5,82,0.00,-RA,,0.00,0.0,WeatherDisplay:10.37,2013-01-14 05:04:00,
2013-01-13 23:10:00,-1.4,-5.6,30.12,WNW,284,3.5,3.5,82,0.00,-RA,,0.00,0.0,WeatherDisplay:10.37,2013-01-14 05:10:00,
2013-01-13 23:15:00,-1.4,-5.6,30.12,WNW,284,2.3,2.3,82,0.00,-RA,,0.00,0.0,WeatherDisplay:10.37,2013-01-14 05:15:00,
2013-01-13 23:20:00,-1.4,-5.5,30.12,WNW,286,1.0,3.0,82,0.00,-RA,,0.00,0.0,WeatherDisplay:10.37,2013-01-14 05:20:00,
2013-01-13 23:25:00,-1.3,-5.5,30.12,WNW,298,3.5,3.5,82,0.00,-RA,,0.00,0.0,WeatherDisplay:10.37,2013-01-14 05:25:00,
2013-01-13 23:30:00,-1.3,-5.5,30.12,WNW,300,3.5,3.5,82,0.00,-RA,,0.00,0.0,WeatherDisplay:10.37,2013-01-14 05:30:00,
2013-01-13 23:35:00,-1.3,-5.5,30.12,WNW,284,3.5,3.5,82,0.00,-RA,,0.00,0.0,WeatherDisplay:10.37,2013-01-14 05:35:00,
2013-01-13 23:40:00,-1.2,-5.4,30.12,WNW,284,2.3,2.3,82,0.00,-RA,,0.00,0.0,WeatherDisplay:10.37,2013-01-14 05:40:00,
2013-01-13 23:45:00,-1.2,-5.4,30.12,WNW,296,2.3,2.3,82,0.00,-RA,,0.00,0.0,WeatherDisplay:10.37,2013-01-14 05:45:00,
2013-01-13 23:50:00,-1.2,-5.4,30.12,WNW,296,0.0,0.0,82,0.00,-RA,,0.00,0.0,WeatherDisplay:10.37,2013-01-14 05:50:00,
2013-01-13 23:55:00,-1.2,-5.4,30.13,WNW,297,1.1,0.0,82,0.00,-RA,,0.00,0.0,WeatherDisplay:10.37,2013-01-14 05:55:00,